{"data":{"norad_id":58978,"epoch":"2026-09-20T22:00:47.385504Z","epoch_age_seconds":119436,"freshness":"FRESH","line1":"1 58978U 24031P   26263.91721511  .00008325  00000+0  25736-3 0  9996","line2":"2 58978  53.1579 107.7377 0001820  68.3609 291.7588 15.34388337146437","mean_motion":15.34388337,"eccentricity":0.000182,"inclination_deg":53.1579,"raan_deg":107.7377,"arg_perigee_deg":68.3609,"mean_anomaly_deg":291.7588,"bstar":0.00025736,"rev_number":14643,"period_min":93.848471425132,"perigee_km":461.49286608778,"apogee_km":463.98294455331,"semimajor_km":6840.8749053205,"source":"CELESTRAK","updated_at":"2026-09-21T09:00:34.021319Z"}}